Tracking 30308 objects as of 19-Apr-2025
HD Live streaming from Space Station
objects crossing your sky now

COSMOS 1275 DEB

Track COSMOS 1275 DEB now!
10-day predictions


NORAD ID: 17642
Int'l Code: 1981-053LQ
Perigee: 744.5 km
Apogee: 792.3 km
Inclination: 82.9 °
Period: 100.1 minutes
Semi major axis: 7139 km
RCS: 0.0092 m2 (small)
Launch date: June 4, 1981
Source: Commonwealth of Independent States (former USSR) (CIS)
Launch site: PLESETSK MISSILE AND SPACE COMPLEX (PKMTR)

Note: This is SATELLITE DEBRIS
Your satellite tracking list
Your tracking list is empty




NASA's NSSDC Master Catalog

Two Line Element Set (TLE):
1 17642U 81053LM  25108.98203876  .00007170  00000-0  22952-2 0  9993
2 17642  82.8602 105.9296 0033465 355.4220   4.6660 14.39154593 75909
Source of the keplerian elements: AFSPC